CW7563 Weather Reports


Display with metric or nautical units.
time (UTC)temp
F
wind
direction
speed
MPH
gust
MPH
rain 1hr
in
rain 24hr
in
rain mn
in
humidity
%
barometer
mb
20260508130806 49 190 2.0 6.0 0.00 0.00 0.00 80 1018.8
20260508130305 49 183 1.0 3.0 0.00 0.00 0.00 80 1018.7
20260508125807 49 190 3.0 7.0 0.00 0.00 0.00 80 1018.7
20260508125306 50 234 2.0 6.0 0.00 0.00 0.00 79 1018.5
20260508124806 50 227 1.0 3.0 0.00 0.00 0.00 79 1018.3
20260508124305 50 154 0.0 5.0 0.00 0.00 0.00 79 1018.2
20260508123305 50 194 2.0 3.0 0.00 0.00 0.00 79 1018.0
20260508122806 50 159 1.0 5.0 0.00 0.00 0.00 79 1018.0
20260508122307 50 187 2.0 6.0 0.00 0.00 0.00 79 1017.8
20260508121806 50 215 1.0 3.0 0.00 0.00 0.00 79 1017.9
20260508121306 50 215 1.0 3.0 0.00 0.00 0.00 79 1018.0
20260508120806 50 211 1.0 3.0 0.00 0.00 0.00 79 1017.9
20260508120306 50 127 2.0 3.0 0.00 0.00 0.00 79 1017.9
20260508115806 51 204 2.0 3.0 0.00 0.00 0.00 79 1017.9
20260508115306 51 197 1.0 3.0 0.00 0.00 0.00 79 1017.9
20260508114806 51 194 2.0 3.0 0.00 0.00 0.00 79 1017.9
20260508113806 51 188 2.0 5.0 0.00 0.00 0.00 78 1017.6
20260508111805 51 185 1.0 3.0 0.00 0.00 0.00 80 1017.5
20260508111305 51 192 2.0 5.0 0.00 0.00 0.00 81 1017.4
20260508110805 51 144 2.0 5.0 0.00 0.00 0.00 81 1017.3
20260508110305 51 156 1.0 5.0 0.00 0.00 0.00 82 1017.3
20260508105806 51 155 3.0 5.0 0.00 0.00 0.00 82 1017.2
20260508105306 51 167 3.0 6.0 0.00 0.00 0.00 81 1017.1
20260508104806 51 160 3.0 7.0 0.00 0.00 0.00 81 1017.1
20260508104306 52 184 4.0 7.0 0.00 0.00 0.00 81 1017.2
20260508103805 52 166 1.0 6.0 0.00 0.00 0.00 81 1017.0
20260508103306 52 156 2.0 3.0 0.00 0.00 0.00 81 1017.0
20260508102805 52 135 2.0 3.0 0.00 0.00 0.00 80 1016.9
20260508102307 52 182 1.0 2.0 0.00 0.00 0.00 80 1016.9
20260508101805 52 182 1.0 3.0 0.00 0.00 0.00 79 1016.8
20260508101305 52 140 2.0 3.0 0.00 0.00 0.00 79 1016.8
20260508100806 52 140 1.0 2.0 0.00 0.00 0.00 79 1016.9
20260508100305 52 140 1.0 1.0 0.00 0.00 0.00 80 1016.8
20260508095805 53 140 0.0 2.0 0.00 0.00 0.00 79 1016.7
20260508095307 53 140 1.0 3.0 0.00 0.00 0.00 79 1016.6
20260508094806 53 140 2.0 3.0 0.00 0.00 0.00 79 1016.6
20260508094305 53 148 2.0 3.0 0.00 0.00 0.00 79 1016.5
20260508093805 53 144 2.0 6.0 0.00 0.00 0.00 79 1016.4
20260508093305 53 156 3.0 7.0 0.00 0.00 0.00 79 1016.5
20260508092806 53 149 3.0 5.0 0.00 0.00 0.00 79 1016.5
20260508092312 53 155 3.0 3.0 0.00 0.00 0.00 78 1016.4
20260508091805 53 144 3.0 5.0 0.00 0.00 0.00 78 1016.5
20260508091305 53 141 3.0 5.0 0.00 0.00 0.00 78 1016.5
20260508090805 54 165 3.0 5.0 0.00 0.00 0.00 78 1016.4
20260508090306 54 149 3.0 5.0 0.00 0.00 0.00 78 1016.4
20260508085805 54 138 4.0 5.0 0.00 0.00 0.00 78 1016.3
20260508085307 54 145 3.0 5.0 0.00 0.00 0.00 77 1016.4
20260508084806 54 173 2.0 5.0 0.00 0.00 0.00 77 1016.3
20260508084305 54 173 2.0 3.0 0.00 0.00 0.00 77 1016.2
20260508083805 54 145 3.0 5.0 0.00 0.00 0.00 76 1016.2
20260508083305 54 150 3.0 5.0 0.00 0.00 0.00 76 1016.2
20260508082805 54 211 2.0 3.0 0.00 0.00 0.00 77 1016.2
20260508081805 54 211 2.0 3.0 0.00 0.00 0.00 77 1016.1
20260508081305 54 212 1.0 2.0 0.00 0.00 0.00 77 1016.1
20260508080805 54 212 2.0 3.0 0.00 0.00 0.00 78 1016.1
20260508080305 54 212 2.0 3.0 0.00 0.00 0.00 77 1016.1
20260508075805 54 212 1.0 2.0 0.00 0.00 0.00 77 1016.1
20260508075309 54 212 0.0 1.0 0.00 0.00 0.00 77 1016.0
20260508074305 54 212 1.0 3.0 0.00 0.00 0.00 76 1016.0
20260508073805 54 212 1.0 3.0 0.00 0.00 0.00 76 1016.0
20260508072805 55 212 2.0 3.0 0.00 0.00 0.00 76 1016.0
20260508072307 55 212 1.0 2.0 0.00 0.00 0.00 75 1015.9
20260508071806 55 212 1.0 2.0 0.00 0.00 0.00 76 1016.0
20260508070306 56 212 1.0 3.0 0.00 0.00 0.00 75 1015.9
20260508065805 56 212 1.0 3.0 0.00 0.00 0.00 75 1015.9
20260508065307 56 212 1.0 2.0 0.00 0.00 0.00 74 1016.0
20260508064804 56 212 1.0 3.0 0.00 0.00 0.00 73 1015.9
20260508064305 56 212 1.0 2.0 0.00 0.00 0.00 73 1016.0
20260508063805 56 212 1.0 1.0 0.00 0.00 0.00 73 1016.0
20260508063305 56 212 1.0 2.0 0.00 0.00 0.00 72 1016.0
20260508062805 56 212 2.0 3.0 0.00 0.00 0.00 72 1015.9
20260508062306 57 212 2.0 3.0 0.00 0.00 0.00 72 1015.9
20260508061805 57 212 1.0 2.0 0.00 0.00 0.00 71 1015.9
20260508061305 58 212 1.0 3.0 0.00 0.00 0.00 70 1015.9
20260508060804 58 213 1.0 2.0 0.00 0.00 0.00 69 1015.9
20260508060305 58 213 2.0 3.0 0.00 0.00 0.00 68 1015.9
20260508055805 59 213 0.0 1.0 0.00 0.00 0.00 68 1015.9
20260508054804 59 213 2.0 3.0 0.00 0.00 0.00 68 1015.9
20260508054305 59 197 0.0 1.0 0.00 0.00 0.00 66 1015.8
20260508053805 59 197 1.0 1.0 0.00 0.00 0.00 66 1015.8
20260508053305 59 197 1.0 2.0 0.00 0.00 0.00 66 1015.8
20260508052805 59 197 1.0 2.0 0.00 0.00 0.00 66 1015.8
20260508052307 59 197 1.0 2.0 0.00 0.00 0.00 66 1015.8
20260508051805 59 197 1.0 2.0 0.00 0.00 0.00 66 1015.8
20260508051305 59 197 1.0 2.0 0.00 0.00 0.00 65 1015.8
20260508050304 59 197 0.0 1.0 0.00 0.00 0.00 66 1015.7
20260508045805 59 197 0.0 2.0 0.00 0.00 0.00 66 1015.8
20260508044805 60 197 1.0 2.0 0.00 0.00 0.00 66 1015.7
20260508043305 60 197 0.0 3.0 0.00 0.00 0.00 64 1015.7
20260508042805 61 197 1.0 3.0 0.00 0.00 0.00 63 1015.6
20260508042307 61 197 1.0 3.0 0.00 0.00 0.00 63 1015.6
20260508041805 61 197 2.0 3.0 0.00 0.00 0.00 63 1015.6
20260508041304 62 197 1.0 2.0 0.00 0.00 0.00 62 1015.5
20260508040805 62 197 2.0 3.0 0.00 0.00 0.00 62 1015.5
20260508040305 62 197 2.0 3.0 0.00 0.00 0.00 61 1015.4
20260508035804 62 197 2.0 3.0 0.00 0.00 0.00 59 1015.4
20260508035306 63 198 2.0 3.0 0.00 0.00 0.00 58 1015.3
20260508034804 63 198 2.0 2.0 0.00 0.00 0.00 57 1015.2
20260508034304 64 198 1.0 2.0 0.00 0.00 0.00 55 1015.1
20260508033804 64 198 1.0 2.0 0.00 0.00 0.00 54 1015.2
20260508033305 65 198 1.0 2.0 0.00 0.00 0.00 52 1015.1
20260508032808 66 198 1.0 2.0 0.00 0.00 0.00 51 1015.0
20260508032307 66 198 0.0 1.0 0.00 0.00 0.00 50 1015.0
20260508031807 67 198 0.0 1.0 0.00 0.00 0.00 49 1014.9
20260508031308 67 198 0.0 1.0 0.00 0.00 0.00 48 1014.9
20260508030807 68 198 1.0 2.0 0.00 0.00 0.00 46 1014.9
20260508030307 68 198 1.0 3.0 0.00 0.00 0.00 45 1014.7
20260508025308 69 198 1.0 2.0 0.00 0.00 0.00 43 1014.9
20260508024807 69 198 2.0 3.0 0.00 0.00 0.00 42 1014.9
20260508024307 69 198 2.0 3.0 0.00 0.00 0.00 41 1014.9
20260508023807 69 192 2.0 3.0 0.00 0.00 0.00 41 1014.9
20260508023307 69 182 1.0 3.0 0.00 0.00 0.00 41 1015.0
20260508022807 70 180 1.0 3.0 0.00 0.00 0.00 41 1015.0
20260508021307 70 180 2.0 3.0 0.00 0.00 0.00 39 1015.0
20260508020307 70 173 2.0 3.0 0.00 0.00 0.00 39 1015.0
20260508015807 71 135 3.0 5.0 0.00 0.00 0.00 39 1015.0
20260508015307 71 94 2.0 6.0 0.00 0.00 0.00 40 1015.1
20260508014807 71 307 0.0 2.0 0.00 0.00 0.00 41 1015.2
20260508014307 72 306 2.0 3.0 0.00 0.00 0.00 41 1015.2
20260508013807 72 309 1.0 3.0 0.00 0.00 0.00 42 1015.2
20260508013307 71 311 1.0 5.0 0.00 0.00 0.00 43 1015.3
20260508012806 72 257 2.0 3.0 0.00 0.00 0.00 43 1015.3
20260508011807 71 264 2.0 3.0 0.00 0.00 0.00 44 1015.4
20260508011307 71 289 3.0 5.0 0.00 0.00 0.00 43 1015.4
20260508010807 71 339 3.0 5.0 0.00 0.00 0.00 43 1015.4
20260508010307 71 327 3.0 6.0 0.00 0.00 0.00 44 1015.5
20260508005807 71 291 2.0 3.0 0.00 0.00 0.00 43 1015.5
20260508004808 71 340 3.0 5.0 0.00 0.00 0.00 43 1015.5
20260508004306 71 250 1.0 3.0 0.00 0.00 0.00 43 1015.5
20260508003307 71 259 1.0 3.0 0.00 0.00 0.00 42 1015.6
20260508002807 71 240 2.0 3.0 0.00 0.00 0.00 44 1015.7
20260508002307 70 268 1.0 3.0 0.00 0.00 0.00 43 1015.8
20260508001807 71 343 1.0 3.0 0.00 0.00 0.00 42 1015.7
20260508001307 71 288 2.0 5.0 0.00 0.00 0.00 42 1015.7
20260508000806 71 299 3.0 6.0 0.00 0.00 0.00 43 1015.7
20260507235806 71 313 2.0 3.0 0.00 0.00 0.00 41 1015.9
20260507234806 70 255 5.0 7.0 0.00 0.00 0.00 38 1016.0
20260507234306 70 243 4.0 8.0 0.00 0.00 0.00 40 1016.0
20260507232807 69 348 2.0 3.0 0.00 0.00 0.00 33 1016.2
20260507231306 71 310 2.0 6.0 0.00 0.00 0.00 33 1016.4
20260507230806 71 125 2.0 3.0 0.00 0.00 0.00 31 1016.4
20260507225806 69 182 3.0 5.0 0.00 0.00 0.00 31 1016.5
20260507225307 68 123 1.0 5.0 0.00 0.00 0.00 32 1016.5
20260507224807 68 157 2.0 3.0 0.00 0.00 0.00 32 1016.7
20260507224307 68 294 4.0 5.0 0.00 0.00 0.00 32 1016.8
20260507223807 69 203 1.0 3.0 0.00 0.00 0.00 40 1016.9
20260507223307 68 302 3.0 7.0 0.00 0.00 0.00 39 1017.0
20260507222307 69 333 2.0 8.0 0.00 0.00 0.00 42 1017.0
20260507221807 68 266 3.0 8.0 0.00 0.00 0.00 44 1017.1
20260507221307 67 227 1.0 3.0 0.00 0.00 0.00 41 1017.2
20260507220806 67 243 3.0 7.0 0.00 0.00 0.00 42 1017.3
20260507220306 66 266 3.0 6.0 0.00 0.00 0.00 45 1017.3
20260507215307 66 249 2.0 7.0 0.00 0.00 0.00 43 1017.3
20260507214806 66 280 4.0 7.0 0.00 0.00 0.00 44 1017.3
20260507214307 66 230 3.0 5.0 0.00 0.00 0.00 44 1017.3
20260507213807 66 300 6.0 8.0 0.00 0.00 0.00 43 1017.3
20260507213306 67 248 5.0 8.0 0.00 0.00 0.00 46 1017.4
20260507212807 66 93 3.0 6.0 0.00 0.00 0.00 48 1017.4
20260507212307 66 35 4.0 9.0 0.00 0.00 0.00 49 1017.6
20260507211806 66 26 4.0 8.0 0.00 0.00 0.00 49 1017.7
20260507211307 66 270 2.0 3.0 0.00 0.00 0.00 51 1017.7
20260507210807 66 276 5.0 9.0 0.00 0.00 0.00 51 1017.8
20260507210306 65 46 2.0 3.0 0.00 0.00 0.00 53 1017.9
20260507205806 65 90 1.0 7.0 0.00 0.00 0.00 51 1018.0
20260507205307 66 305 1.0 8.0 0.00 0.00 0.00 52 1018.1
20260507204807 66 254 2.0 7.0 0.00 0.00 0.00 53 1018.1
20260507204307 65 292 2.0 7.0 0.00 0.00 0.00 52 1018.1
20260507203807 66 270 3.0 7.0 0.00 0.00 0.00 55 1018.1
20260507203307 65 251 3.0 8.0 0.00 0.00 0.00 55 1018.2
20260507202806 65 280 2.0 7.0 0.00 0.00 0.00 55 1018.2
20260507201307 64 288 6.0 12.0 0.00 0.00 0.00 56 1018.4
20260507200806 64 1 5.0 8.0 0.00 0.00 0.00 57 1018.3
20260507195307 63 279 4.0 10.0 0.00 0.00 0.00 58 1018.5
20260507194806 63 296 5.0 7.0 0.00 0.00 0.00 58 1018.5
20260507194306 64 234 3.0 7.0 0.00 0.00 0.00 57 1018.6
20260507193807 64 277 5.0 9.0 0.00 0.00 0.00 58 1018.6
20260507193306 63 244 2.0 5.0 0.00 0.00 0.00 60 1018.7
20260507192806 62 91 2.0 5.0 0.00 0.00 0.00 60 1018.7
20260507191806 62 176 3.0 6.0 0.00 0.00 0.00 60 1019.0
20260507191307 62 16 5.0 8.0 0.00 0.00 0.00 60 1019.0
20260507190806 62 190 2.0 6.0 0.00 0.00 0.00 61 1019.0
20260507190306 62 304 3.0 6.0 0.00 0.00 0.00 61 1019.1
20260507185806 62 205 2.0 3.0 0.00 0.00 0.00 61 1019.1
20260507184806 60 256 3.0 7.0 0.00 0.00 0.00 63 1019.3
20260507184306 61 268 5.0 8.0 0.00 0.00 0.00 62 1019.4
20260507183306 60 257 2.0 7.0 0.00 0.00 0.00 63 1019.4
20260507182806 60 288 2.0 7.0 0.00 0.00 0.00 64 1019.5
20260507182307 60 293 3.0 8.0 0.00 0.00 0.00 64 1019.5
20260507181805 59 102 2.0 7.0 0.00 0.00 0.00 65 1019.6
20260507180806 58 46 4.0 9.0 0.00 0.00 0.00 66 1019.7
20260507180306 58 315 2.0 8.0 0.00 0.00 0.00 67 1019.7
20260507175806 58 292 2.0 6.0 0.00 0.00 0.00 69 1019.8
20260507175307 58 320 3.0 8.0 0.00 0.00 0.00 67 1019.9
20260507174806 57 225 1.0 3.0 0.00 0.00 0.00 68 1019.9
20260507173806 57 290 3.0 8.0 0.00 0.00 0.00 69 1020.0
20260507173305 57 302 2.0 8.0 0.00 0.00 0.00 69 1020.1
20260507172806 56 297 4.0 9.0 0.00 0.00 0.00 70 1020.1
20260507171806 56 305 5.0 8.0 0.00 0.00 0.00 71 1020.1
20260507171306 56 277 3.0 7.0 0.00 0.00 0.00 71 1020.1
20260507170307 56 328 5.0 9.0 0.00 0.00 0.00 71 1020.1
20260507165805 56 19 4.0 8.0 0.00 0.00 0.00 73 1020.2
20260507165307 55 299 5.0 8.0 0.00 0.00 0.00 72 1020.2
20260507164806 55 43 2.0 8.0 0.00 0.00 0.00 72 1020.2
20260507164306 55 82 3.0 9.0 0.00 0.00 0.00 72 1020.1
20260507163806 55 64 2.0 5.0 0.00 0.00 0.00 73 1020.2
20260507163306 55 120 2.0 5.0 0.00 0.00 0.00 73 1020.2
20260507162307 54 41 3.0 5.0 0.00 0.00 0.00 74 1020.1
20260507161806 54 13 3.0 6.0 0.00 0.00 0.00 75 1020.1
20260507161306 54 30 2.0 5.0 0.00 0.00 0.00 74 1020.1
20260507160806 54 305 3.0 6.0 0.00 0.00 0.00 75 1020.2
20260507160306 54 299 1.0 3.0 0.00 0.00 0.00 74 1020.1
20260507155806 54 294 1.0 3.0 0.00 0.00 0.00 75 1020.0
20260507155307 54 271 2.0 3.0 0.00 0.00 0.00 74 1020.1
20260507154805 54 211 1.0 5.0 0.00 0.00 0.00 74 1020.1
20260507154306 54 288 2.0 3.0 0.00 0.00 0.00 75 1020.1
20260507153806 53 225 1.0 8.0 0.00 0.00 0.00 76 1020.1
20260507153306 53 303 3.0 5.0 0.00 0.00 0.00 76 1020.1
20260507152807 53 237 2.0 3.0 0.00 0.00 0.00 76 1020.1
20260507152307 53 288 2.0 6.0 0.00 0.00 0.00 77 1020.1
20260507151806 53 306 2.0 7.0 0.00 0.00 0.00 76 1020.1
20260507151306 53 291 3.0 7.0 0.00 0.00 0.00 76 1020.1
20260507150807 53 231 1.0 3.0 0.00 0.00 0.00 77 1020.2
20260507150306 52 293 2.0 3.0 0.00 0.00 0.00 76 1020.1
20260507145806 53 265 2.0 3.0 0.00 0.00 0.00 76 1020.2
20260507145307 53 255 2.0 5.0 0.00 0.00 0.00 76 1020.2
20260507144305 52 312 2.0 6.0 0.00 0.00 0.00 77 1020.2
20260507143306 52 271 1.0 3.0 0.00 0.00 0.00 77 1020.2
20260507142307 52 252 2.0 5.0 0.00 0.00 0.00 77 1020.2
20260507141806 52 262 1.0 3.0 0.00 0.00 0.00 77 1020.1
20260507141306 52 236 1.0 3.0 0.00 0.00 0.00 77 1020.0
20260507140806 52 244 2.0 3.0 0.00 0.00 0.00 77 1020.0
20260507140306 52 288 1.0 3.0 0.00 0.00 0.00 77 1020.0
20260507135806 52 293 2.0 3.0 0.00 0.00 0.00 77 1019.9
20260507134806 52 283 1.0 3.0 0.00 0.00 0.00 77 1019.8
20260507134306 52 266 2.0 3.0 0.00 0.00 0.00 77 1019.9
20260507133806 52 267 2.0 3.0 0.00 0.00 0.00 77 1019.7
20260507133305 52 273 1.0 3.0 0.00 0.00 0.00 77 1019.7
20260507131805 52 269 1.0 2.0 0.00 0.00 0.00 77 1019.6
20260507131305 52 269 2.0 3.0 0.00 0.00 0.00 77 1019.7